Location: Unspecified
(0.0000°N, 0.0000°E)
Time: 17:33:51
(UTC+00:00)

N. Korean satellite - Pass Details

Date: 09 December 2018
Orbit: 456 x 511 km, 97.2° (Epoch: 12 December)

Event Time Altitude Azimuth Distance (km) Brightness Sun altitude
Rises 05:11:14 0° 39° (NE) 2,546 10.4 -9.4°
Reaches altitude 10° 05:13:51 10° 60° (ENE) 1,680 9.8 -8.8°
Maximum altitude 05:16:13 17° 102° (ESE) 1,328 10.1 -8.3°
Drops below altitude 10° 05:18:37 10° 143° (SE) 1,704 10.4 -7.7°
Sets 05:21:17 0° 163° (SSE) 2,601 10.9 -7.1°
